Location: Peterborough
(44.3091°N, 78.3197°W)
Time: 18:28:28
(UTC-04:00)

Vanguard 2 Rocket - Pass Details

Date: 28 March 2023
Orbit: 556 x 3304 km, 32.9° (Epoch: 26 May)

Event Time Altitude Azimuth Distance (km) Brightness Sun altitude
Rises 00:25:31 0° 267° (W) 4,545 10.6 -41.3°
Reaches altitude 10° 00:28:27 10° 257° (WSW) 3,901 10.1 -41.5°
Enters shadow 00:30:10 16° 250° (WSW) 3,606 9.8 -41.6°
